User: anonymous   Login
Location: Banff
(51.1667°N, 115.5667°W)
Time: 11:41:38
(UTC+00:00)
Language:

deb Explorer IX - Orbit

View from above orbital plane
View from above orbital plane
View from above satellite
View from above satellite

Ground track
Ground track

The orbit data is extracted from the following two-line orbital elements,

1    85U 61004C   20334.18389064  .00001914  00000-0  41209-3 0  9999
2    85  38.7690 260.2572 0393767 158.8182 202.9375 14.21231242954514
Epoch (UTC): 29 November 2020 04:24:48
Eccentricity: 0.0393767
inclination: 38.7690°
perigee height: 538 km
apogee height: 1104 km
right ascension of ascending node: 260.2572°
argument of perigee: 158.8182°
revolutions per day: 14.21231242
mean anomaly at epoch: 202.9375°
orbit number at epoch: 95451

The dashed part of the orbit path shows where the satellite is in the earth's shadow,  

DLR